This demonstration page uses our WeatherBlox Daily Observations layout. Learn more.

38.88101, -77.10428

Hourly Observations for January 31, 2020

Temp ( °F °C ) Dew Point ( °F °C ) Humidity (%) Winds ( mph kmh ) Pressure ( in mb ) Visibility ( mi km ) Precip ( " mm )
12:52 am 00:52 Partly Cloudy 35 1.7 26 -3.3 70 70 ENE 6 9 30.32 1027 10 16.0934 0 0
1:52 am 01:52 Cloudy 35 1.7 27 -2.8 72 72 ENE 5 7 30.32 1027 10 16.0934 0 0
2:52 am 02:52 Cloudy 35 1.7 27 -2.8 72 72 NE 5 7 30.31 1026 10 16.0934 0 0
3:52 am 03:52 Cloudy 35 1.7 27 -2.8 72 72 NE 3 6 30.32 1027 10 16.0934 0 0
4:52 am 04:52 Cloudy 34 1.1 27 -2.8 76 76 NE 5 7 30.32 1027 10 16.0934 0 0
5:52 am 05:52 Partly Cloudy 33 0.6 27 -2.8 78 78 NE 6 9 30.32 1027 10 16.0934 0 0
6:52 am 06:52 Mostly Cloudy 35 1.7 28 -2.2 76 76 ENE 5 7 30.32 1027 10 16.0934 0 0
7:52 am 07:52 Mostly Cloudy 35 1.7 28 -2.2 76 76 Calm 30.33 1027 10 16.0934 0 0
8:52 am 08:52 Mostly Cloudy 37 2.8 29 -1.7 73 73 NNE 5 7 30.33 1027 10 16.0934 0 0
9:52 am 09:52 Cloudy 39 3.9 29 -1.7 67 67 Calm 30.33 1027 10 16.0934 0 0
10:52 am 10:52 Cloudy 42 5.6 30 -1.1 62 62 SSW 5 7 30.35 1028 10 16.0934 0 0
11:52 am 11:52 Cloudy 42 5.6 29 -1.7 60 60 Calm 30.3 1026 10 16.0934 0 0
12:52 pm 12:52 Cloudy 44 6.7 29 -1.7 55 55 Calm 30.24 1024 10 16.0934 0 0
1:52 pm 13:52 Cloudy 45 7.2 30 -1.1 56 56 NNE 5 7 30.22 1023 10 16.0934 0 0
2:52 pm 14:52 Cloudy 47 8.3 30 -1.1 52 52 Calm 30.21 1023 10 16.0934 0 0
3:52 pm 15:52 Cloudy 46 7.8 30 -1.1 54 54 W 6 9 30.24 1024 10 16.0934 0 0
4:52 pm 16:52 Cloudy with Light Rain 45 7.2 30 -1.1 56 56 W 7 11 30.25 1024 10 16.0934 0.001 0.001
5:52 pm 17:52 Cloudy 43 6.1 31 -0.6 63 63 SW 5 7 30.24 1024 10 16.0934 0.01 0.254
6:52 pm 18:52 Mostly Cloudy 42 5.6 33 0.6 71 71 S 3 6 30.23 1024 10 16.0934 0 0
7:52 pm 19:52 Mostly Cloudy 42 5.6 33 0.6 71 71 Calm 30.21 1023 10 16.0934 0 0
8:52 pm 20:52 Partly Cloudy 42 5.6 31 -0.6 65 65 Calm 30.2 1023 10 16.0934 0 0
9:52 pm 21:52 Partly Cloudy 41 5 35 1.7 79 79 Calm 30.17 1022 10 16.0934 0 0
10:52 pm 22:52 Cloudy 40 4.4 34 1.1 79 79 SW 3 6 30.15 1021 10 16.0934 0 0
11:52 pm 23:52 Cloudy 39 3.9 32 0 76 76 WSW 3 6 30.14 1021 10 16.0934 0 0

Powered by AerisWeather